Location: Westminster
(33.3626°N, 96.4619°W)
Time: 12:16:08
(UTC+00:00)

Cosmos 1515 Rocket - Pass Details

Date: 02 July 2022
Orbit: 604 x 631 km, 82.5° (Epoch: 13 August)

Event Time Altitude Azimuth Distance (km) Brightness Sun altitude
Rises 08:17:34 0° 18° (NNE) 2,892 8.2 -28.1°
Reaches altitude 10° 08:21:09 10° 49° (NE) 1,974 7.0 -27.7°
Maximum altitude 08:22:56 12° 73° (ENE) 1,820 6.5 -27.5°
Drops below altitude 10° 08:24:44 10° 98° (E) 1,963 6.4 -27.3°
Enters shadow 08:26:24 - 115° (ESE) 2,318 6.5 -27.2°
